Find Starlink 32772

NORAD ID: 63033 Int'l Des: 2025-034 Owner: SPXS Country: US Constellation: starlink operational
LEOCIRCULAR

Live Position

Loading 3D Globe...

About Starlink 32772

Description loading...

Upcoming Passes

Passes for default location (London). Set your location on the main map for personalized predictions.

Altitude History

Loading altitude history...

Two-Line Element Set

1 63033U 25034E 26106.35316707 .00006964 00000-0 24697-3 0 9992
2 63033 53.1578 83.1535 0001084 84.2736 275.8388 15.30206386 64852
Epoch: Apr 16, 2026 • Age: 21 hours

Current Status

Altitude 476.2 km
Velocity 7.63 km/s
Sub-Earth Point 28.70°N, 177.3°W
Launch Date Feb 18, 2025
Age 1.1 years
Type internet

Technical Details

Classification Payload
Mass 730.00 kg
Dry Mass 700.00 kg
Total Mass 730.00 kg
Length 0.30 m
Diameter 4.10 m
Span 29.00 m
Shape Box + pan
Manufacturer SPXS
Bus Type Starlink V2M
Phase Status In Orbit
Owner/State SPXS/US

Most Searched